EWG450 EDLW-EDDG

Flight info

Callsign EWG450
Flight time 0h 15m
Altitude 11000
Route DOMEG2U/24 DOMEG
Aircraft A320/M-SDE3FGHIRWY/LB1

Departure

Time 2026-04-12 11:16
Airport Dortmund Airport (EDLW)

Arrival

Time 2026-04-12 11:31
Airport Münster Osnabrück Airport (EDDG)
Time Latitude Longitude Altitude Speed Heading
2026-04-12 10:40 51.51600 7.61365 460 ft 0 kts 149°
2026-04-12 11:08 51.51612 7.61353 419 ft 4 kts 139°
2026-04-12 11:09 51.51627 7.61324 426 ft 4 kts 122°
2026-04-12 11:09 51.51632 7.61311 424 ft 0 kts 121°
2026-04-12 11:10 51.51633 7.61309 416 ft 2 kts 121°
2026-04-12 11:10 51.51637 7.61285 424 ft 1 kts 62°
2026-04-12 11:13 51.51638 7.61289 416 ft 3 kts 61°
2026-04-12 11:13 51.51709 7.61434 425 ft 23 kts 51°
2026-04-12 11:13 51.51804 7.61677 414 ft 28 kts 60°
2026-04-12 11:14 51.51905 7.61976 415 ft 30 kts 61°
2026-04-12 11:14 51.52000 7.62236 412 ft 26 kts 59°
2026-04-12 11:14 51.52100 7.62510 406 ft 22 kts 61°
2026-04-12 11:14 51.52157 7.62683 403 ft 20 kts 61°
2026-04-12 11:15 51.52247 7.62758 401 ft 12 kts 324°
2026-04-12 11:15 51.52326 7.62653 403 ft 17 kts 274°
2026-04-12 11:15 51.52263 7.62460 405 ft 34 kts 242°
2026-04-12 11:15 51.52038 7.61809 410 ft 98 kts 239°
2026-04-12 11:16 51.51598 7.60555 436 ft 152 kts 239°
2026-04-12 11:16 51.51115 7.59021 1029 ft 155 kts 243°
2026-04-12 11:16 51.50660 7.57378 1853 ft 155 kts 243°
2026-04-12 11:16 51.50126 7.55835 2337 ft 170 kts 238°
2026-04-12 11:17 51.49477 7.54118 2730 ft 182 kts 238°
2026-04-12 11:17 51.48811 7.52366 3210 ft 189 kts 238°
2026-04-12 11:17 51.48082 7.50430 3560 ft 211 kts 238°
2026-04-12 11:17 51.47422 7.48207 3891 ft 237 kts 260°
2026-04-12 11:18 51.47652 7.45542 4564 ft 248 kts 290°
2026-04-12 11:18 51.48609 7.42986 5301 ft 265 kts 317°
2026-04-12 11:18 51.50207 7.41593 6233 ft 270 kts 339°
2026-04-12 11:18 51.51968 7.40472 7177 ft 272 kts 334°
2026-04-12 11:19 51.53665 7.39419 8031 ft 278 kts 345°
2026-04-12 11:19 51.55711 7.39200 8960 ft 286 kts
2026-04-12 11:19 51.57622 7.40208 9804 ft 295 kts 28°
2026-04-12 11:19 51.58733 7.41499 10298 ft 302 kts 39°
2026-04-12 11:20 51.60964 7.44630 10734 ft 334 kts 40°
2026-04-12 11:20 51.62777 7.47192 10978 ft 356 kts 40°
2026-04-12 11:20 51.64674 7.49869 11071 ft 375 kts 40°
2026-04-12 11:20 51.66745 7.52788 11085 ft 398 kts 40°
2026-04-12 11:21 51.68835 7.55732 11077 ft 404 kts 40°
2026-04-12 11:21 51.70229 7.57696 11075 ft 404 kts 40°
2026-04-12 11:21 51.73058 7.61708 11059 ft 387 kts 40°
2026-04-12 11:21 51.75170 7.64231 11079 ft 396 kts 27°
2026-04-12 11:22 51.77804 7.66017 11070 ft 382 kts 19°
2026-04-12 11:22 51.80217 7.67495 11079 ft 366 kts 18°
2026-04-12 11:22 51.82594 7.68949 11072 ft 364 kts 18°
2026-04-12 11:22 51.84954 7.70389 11071 ft 364 kts 18°
2026-04-12 11:23 51.87327 7.71841 11047 ft 352 kts 18°
2026-04-12 11:23 51.89494 7.73450 10917 ft 340 kts 30°
2026-04-12 11:23 51.91450 7.75479 10794 ft 328 kts 31°
2026-04-12 11:23 51.93349 7.77447 10656 ft 316 kts 31°
2026-04-12 11:24 51.95183 7.79346 10400 ft 310 kts 31°
2026-04-12 11:24 51.96417 7.80621 10111 ft 310 kts 31°
2026-04-12 11:24 51.98299 7.82564 9233 ft 324 kts 31°
2026-04-12 11:24 52.00230 7.84560 8316 ft 335 kts 31°
2026-04-12 11:25 52.02217 7.86621 7439 ft 343 kts 31°
2026-04-12 11:25 52.04216 7.88701 6931 ft 339 kts 31°
2026-04-12 11:25 52.06181 7.90751 6494 ft 332 kts 31°
2026-04-12 11:25 52.08112 7.92753 6041 ft 326 kts 31°
2026-04-12 11:26 52.10016 7.94659 5619 ft 319 kts 30°
2026-04-12 11:26 52.11936 7.96539 5187 ft 312 kts 30°
2026-04-12 11:26 52.13754 7.98304 4724 ft 309 kts 30°
2026-04-12 11:26 52.15618 8.00114 4292 ft 296 kts 30°
2026-04-12 11:27 52.17431 8.01182 3991 ft 273 kts
2026-04-12 11:27 52.19174 8.00513 3736 ft 248 kts 324°
2026-04-12 11:27 52.20178 7.98450 3552 ft 226 kts 284°
2026-04-12 11:27 52.20124 7.95965 3400 ft 222 kts 251°
2026-04-12 11:28 52.19534 7.93671 3211 ft 221 kts 243°
2026-04-12 11:28 52.18839 7.91400 3024 ft 217 kts 243°
2026-04-12 11:28 52.18212 7.89257 3012 ft 218 kts 244°
2026-04-12 11:28 52.17590 7.86955 2936 ft 219 kts 246°
2026-04-12 11:29 52.16983 7.84558 2310 ft 231 kts 245°
2026-04-12 11:29 52.16372 7.82180 1856 ft 223 kts 248°
2026-04-12 11:29 52.15862 7.79878 1519 ft 208 kts 249°
2026-04-12 11:29 52.15409 7.77726 1283 ft 192 kts 250°
2026-04-12 11:30 52.14991 7.75733 1009 ft 181 kts 250°
2026-04-12 11:30 52.14569 7.73690 683 ft 180 kts 250°
2026-04-12 11:30 52.14182 7.71892 473 ft 170 kts 248°
2026-04-12 11:30 52.13823 7.70145 283 ft 157 kts 248°
2026-04-12 11:31 52.13478 7.68616 166 ft 128 kts 249°
2026-04-12 11:31 52.13268 7.67602 163 ft 61 kts 253°
2026-04-12 11:31 52.13178 7.67140 162 ft 33 kts 252°
2026-04-12 11:31 52.13063 7.67080 165 ft 17 kts 141°
2026-04-12 11:32 52.13032 7.67231 164 ft 11 kts 87°
2026-04-12 11:32 52.13062 7.67411 162 ft 20 kts 73°
2026-04-12 11:32 52.13101 7.67591 161 ft 16 kts 68°
2026-04-12 11:32 52.13144 7.67780 164 ft 19 kts 71°
2026-04-12 11:33 52.13189 7.68007 167 ft 23 kts 71°
2026-04-12 11:33 52.13242 7.68268 170 ft 26 kts 72°
2026-04-12 11:33 52.13307 7.68567 170 ft 30 kts 71°
2026-04-12 11:33 52.13348 7.68858 165 ft 20 kts 115°
2026-04-12 11:34 52.13303 7.68918 165 ft 9 kts 115°
2026-04-12 11:34 52.13311 7.69025 165 ft 9 kts 76°
2026-04-12 11:34 52.13273 7.69154 166 ft 12 kts 133°
2026-04-12 11:34 52.13248 7.69219 167 ft 0 kts 129°
2026-04-12 11:35 52.13230 7.69246 167 ft 11 kts 140°
2026-04-12 11:35 52.13191 7.69335 168 ft 4 kts 82°
2026-04-12 11:35 52.13191 7.69396 167 ft 12 kts 102°
2026-04-12 11:35 52.13160 7.69450 168 ft 0 kts 124°